THY4HN LTBS-LTFM

Flight info

Callsign THY4HN
Flight time N/A
Altitude 37000
Route RIVBU DCT BAGLU DCT ATGIT UT58 KFK/N0444F380 UM855 SISPI
Aircraft A320/M-SDE3FGHIRWY/LB1

Departure

Time 2026-04-25 17:32
Airport Dalaman International Airport (LTBS)

Arrival

Time N/A
Airport İstanbul Airport (LTFM)
Time Latitude Longitude Altitude Speed Heading
2026-04-25 16:40 36.71418 28.78747 21 ft 0 kts 285°
2026-04-25 17:21 36.71418 28.78749 21 ft 0 kts 285°
2026-04-25 17:24 36.71417 28.78755 21 ft 2 kts 285°
2026-04-25 17:24 36.71413 28.78774 21 ft 2 kts 285°
2026-04-25 17:24 36.71408 28.78791 20 ft 2 kts 285°
2026-04-25 17:25 36.71405 28.78809 20 ft 2 kts 285°
2026-04-25 17:25 36.71401 28.78827 20 ft 1 kts 285°
2026-04-25 17:25 36.71398 28.78838 20 ft 1 kts 267°
2026-04-25 17:25 36.71405 28.78853 20 ft 1 kts 209°
2026-04-25 17:26 36.71411 28.78855 21 ft 1 kts 189°
2026-04-25 17:26 36.71415 28.78856 21 ft 0 kts 196°
2026-04-25 17:28 36.71414 28.78856 20 ft 2 kts 196°
2026-04-25 17:28 36.71352 28.78887 19 ft 13 kts 114°
2026-04-25 17:28 36.71329 28.79010 19 ft 14 kts 83°
2026-04-25 17:28 36.71410 28.79070 20 ft 14 kts 16°
2026-04-25 17:29 36.71508 28.79103 20 ft 15 kts 15°
2026-04-25 17:29 36.71612 28.79138 21 ft 15 kts 15°
2026-04-25 17:29 36.71713 28.79171 23 ft 14 kts 15°
2026-04-25 17:29 36.71826 28.79208 25 ft 24 kts 16°
2026-04-25 17:30 36.71999 28.79267 27 ft 24 kts 15°
2026-04-25 17:30 36.72161 28.79322 29 ft 23 kts 15°
2026-04-25 17:30 36.72315 28.79376 28 ft 23 kts 16°
2026-04-25 17:30 36.72471 28.79430 27 ft 23 kts 15°
2026-04-25 17:31 36.72608 28.79478 26 ft 16 kts 25°
2026-04-25 17:31 36.72626 28.79606 25 ft 17 kts 116°
2026-04-25 17:31 36.72533 28.79665 25 ft 16 kts 198°
2026-04-25 17:31 36.72296 28.79580 24 ft 66 kts 196°
2026-04-25 17:32 36.71644 28.79356 22 ft 126 kts 194°
2026-04-25 17:32 36.70644 28.79015 177 ft 160 kts 197°
2026-04-25 17:32 36.69575 28.78638 706 ft 163 kts 194°
2026-04-25 17:32 36.68479 28.78270 1301 ft 166 kts 193°
2026-04-25 17:33 36.67362 28.77896 1858 ft 170 kts 192°
2026-04-25 17:33 36.66171 28.77499 2266 ft 185 kts 192°
2026-04-25 17:33 36.64869 28.77064 2683 ft 202 kts 192°
2026-04-25 17:33 36.63459 28.76592 3113 ft 219 kts 192°
2026-04-25 17:34 36.61928 28.76075 3550 ft 238 kts 192°
2026-04-25 17:34 36.60263 28.75511 3976 ft 259 kts 192°
2026-04-25 17:34 36.58451 28.74983 4566 ft 271 kts 181°
2026-04-25 17:34 36.56645 28.75361 5400 ft 266 kts 152°
2026-04-25 17:35 36.56104 28.75732 5725 ft 264 kts 143°
2026-04-25 17:35 36.54421 28.78697 7213 ft 261 kts 107°
2026-04-25 17:35 36.53957 28.80871 7999 ft 265 kts 107°
2026-04-25 17:35 36.53478 28.83095 8768 ft 270 kts 108°
2026-04-25 17:36 36.52984 28.85355 9533 ft 273 kts 109°
2026-04-25 17:36 36.52477 28.87644 10256 ft 277 kts 109°
2026-04-25 17:36 36.51973 28.89985 10682 ft 292 kts 104°
2026-04-25 17:36 36.51987 28.92610 11061 ft 314 kts 80°
2026-04-25 17:37 36.52889 28.95098 11700 ft 327 kts 57°
2026-04-25 17:37 36.54566 28.97034 12273 ft 340 kts 33°
2026-04-25 17:37 36.56820 28.98080 12897 ft 347 kts 17°
2026-04-25 17:37 36.59137 28.98832 13532 ft 350 kts 17°
2026-04-25 17:38 36.61524 28.99610 14158 ft 353 kts 17°
2026-04-25 17:38 36.62303 28.99867 14353 ft 354 kts 17°
2026-04-25 17:38 36.66281 29.01202 15357 ft 358 kts 17°
2026-04-25 17:38 36.68697 29.02025 15947 ft 361 kts 17°
2026-04-25 17:39 36.71153 29.02867 16534 ft 363 kts 17°
2026-04-25 17:39 36.73592 29.03703 17075 ft 366 kts 17°
2026-04-25 17:39 36.76024 29.04539 17602 ft 369 kts 17°
2026-04-25 17:39 36.78503 29.05392 18131 ft 372 kts 17°
2026-04-25 17:40 36.81024 29.06261 18656 ft 375 kts 17°
2026-04-25 17:40 36.83549 29.07131 19214 ft 377 kts 17°
2026-04-25 17:40 36.86060 29.07999 19743 ft 379 kts 17°
2026-04-25 17:40 36.88599 29.08878 20267 ft 381 kts 17°
2026-04-25 17:41 36.91161 29.09764 20779 ft 383 kts 17°
2026-04-25 17:41 36.93732 29.10656 21287 ft 385 kts 18°
2026-04-25 17:41 36.96310 29.11694 21786 ft 386 kts 22°
2026-04-25 17:41 36.98786 29.12917 22265 ft 387 kts 25°
2026-04-25 17:42 37.01284 29.14255 22753 ft 389 kts 25°
2026-04-25 17:42 37.03780 29.15609 23216 ft 391 kts 25°
2026-04-25 17:42 37.06275 29.16957 23657 ft 393 kts 25°